TimeEDT,TemperatureF,Dew PointF,Humidity,Sea Level PressureIn,VisibilityMPH,Wind Direction,Wind SpeedMPH,Gust SpeedMPH,PrecipitationIn,Events,Conditions,WindDirDegrees,DateUTC
12:35 AM,64.4,62.6,94,30.09,1.8,SE,3.5,-,N/A,,Unknown,140,2013-10-04 04:35:00
12:55 AM,64.4,62.6,94,30.09,7.0,Calm,Calm,-,N/A,,Clear,0,2013-10-04 04:55:00
1:15 AM,64.4,62.6,94,30.09,10.0,Calm,Calm,-,N/A,,Clear,0,2013-10-04 05:15:00
1:35 AM,62.6,60.8,94,30.09,2.0,Calm,Calm,-,N/A,,Clear,0,2013-10-04 05:35:00
1:55 AM,64.4,62.6,94,30.09,7.0,Calm,Calm,-,N/A,,Clear,0,2013-10-04 05:55:00
2:15 AM,64.4,62.6,94,30.09,10.0,South,3.5,-,N/A,,Clear,190,2013-10-04 06:15:00
2:35 AM,64.4,62.6,94,30.09,10.0,South,4.6,-,N/A,,Clear,180,2013-10-04 06:35:00
2:55 AM,64.4,62.6,94,30.09,10.0,South,5.8,-,N/A,,Clear,190,2013-10-04 06:55:00
3:15 AM,66.2,62.6,88,30.09,10.0,South,4.6,-,N/A,,Clear,180,2013-10-04 07:15:00
3:35 AM,66.2,62.6,88,30.08,10.0,South,4.6,-,N/A,,Clear,180,2013-10-04 07:35:00
3:55 AM,66.2,62.6,88,30.08,10.0,South,5.8,-,N/A,,Clear,190,2013-10-04 07:55:00
4:15 AM,66.2,62.6,88,30.08,10.0,SSW,5.8,-,N/A,,Clear,200,2013-10-04 08:15:00
4:35 AM,66.2,62.6,88,30.09,10.0,SSW,4.6,-,N/A,,Clear,210,2013-10-04 08:35:00
4:55 AM,66.2,60.8,83,30.09,10.0,South,4.6,-,N/A,,Clear,190,2013-10-04 08:55:00
5:15 AM,64.4,60.8,88,30.10,10.0,South,4.6,-,N/A,,Clear,190,2013-10-04 09:15:00
5:35 AM,64.4,60.8,88,30.10,10.0,South,4.6,-,N/A,,Clear,190,2013-10-04 09:35:00
5:55 AM,64.4,60.8,88,30.10,10.0,SSW,5.8,-,N/A,,Clear,210,2013-10-04 09:55:00
6:15 AM,64.4,60.8,88,30.10,10.0,SSW,4.6,-,N/A,,Clear,200,2013-10-04 10:15:00
6:35 AM,64.4,60.8,88,30.11,10.0,SSW,5.8,-,N/A,,Clear,200,2013-10-04 10:35:00
6:55 AM,64.4,60.8,88,30.11,10.0,SSW,6.9,-,N/A,,Clear,200,2013-10-04 10:55:00
7:15 AM,64.4,60.8,88,30.12,10.0,SSW,5.8,-,N/A,,Clear,200,2013-10-04 11:15:00
7:35 AM,64.4,60.8,88,30.12,10.0,South,5.8,-,N/A,,Clear,190,2013-10-04 11:35:00
7:55 AM,64.4,60.8,88,30.13,10.0,SSW,4.6,-,N/A,,Clear,200,2013-10-04 11:55:00
8:15 AM,64.4,60.8,88,30.13,10.0,South,5.8,-,N/A,,Clear,190,2013-10-04 12:15:00
8:35 AM,64.4,60.8,88,30.14,10.0,SSW,3.5,-,N/A,,Clear,200,2013-10-04 12:35:00
8:55 AM,66.2,60.8,83,30.15,10.0,South,3.5,-,N/A,,Clear,190,2013-10-04 12:55:00
9:15 AM,68.0,62.6,83,30.15,10.0,South,4.6,-,N/A,,Clear,190,2013-10-04 13:15:00
9:35 AM,69.8,62.6,78,30.15,10.0,South,4.6,-,N/A,,Clear,190,2013-10-04 13:35:00
9:55 AM,69.8,62.6,78,30.16,10.0,SSW,5.8,-,N/A,,Clear,210,2013-10-04 13:55:00
10:15 AM,71.6,62.6,73,30.16,10.0,SSW,6.9,-,N/A,,Scattered Clouds,210,2013-10-04 14:15:00
10:35 AM,73.4,62.6,69,30.16,10.0,SW,4.6,-,N/A,,Scattered Clouds,230,2013-10-04 14:35:00
10:55 AM,73.4,64.4,73,30.16,10.0,South,4.6,-,N/A,,Scattered Clouds,190,2013-10-04 14:55:00
11:15 AM,75.2,64.4,69,30.15,10.0,South,5.8,-,N/A,,Mostly Cloudy,190,2013-10-04 15:15:00
11:35 AM,75.2,64.4,69,30.15,7.0,South,6.9,-,N/A,,Scattered Clouds,180,2013-10-04 15:35:00
11:55 AM,77.0,64.4,65,30.15,10.0,SSW,5.8,-,N/A,,Scattered Clouds,210,2013-10-04 15:55:00
12:15 PM,78.8,62.6,57,30.14,10.0,West,5.8,-,N/A,,Clear,260,2013-10-04 16:15:00
12:35 PM,78.8,62.6,57,30.14,10.0,SW,6.9,-,N/A,,Clear,230,2013-10-04 16:35:00
12:55 PM,78.8,62.6,57,30.14,10.0,WSW,4.6,-,N/A,,Clear,250,2013-10-04 16:55:00
1:15 PM,78.8,64.4,61,30.14,10.0,West,9.2,-,N/A,,Clear,260,2013-10-04 17:15:00
1:35 PM,78.8,62.6,57,30.13,10.0,SW,4.6,-,N/A,,Mostly Cloudy,220,2013-10-04 17:35:00
1:55 PM,78.8,62.6,57,30.13,10.0,WSW,5.8,-,N/A,,Mostly Cloudy,240,2013-10-04 17:55:00
2:15 PM,80.6,62.6,54,30.11,10.0,West,3.5,-,N/A,,Scattered Clouds,260,2013-10-04 18:15:00
2:35 PM,80.6,62.6,54,30.11,10.0,SW,6.9,-,N/A,,Mostly Cloudy,220,2013-10-04 18:35:00
2:55 PM,78.8,62.6,57,30.10,10.0,SW,3.5,-,N/A,,Mostly Cloudy,220,2013-10-04 18:55:00
3:15 PM,80.6,62.6,54,30.10,10.0,SW,4.6,-,N/A,,Mostly Cloudy,220,2013-10-04 19:15:00
3:35 PM,80.6,60.8,51,30.10,10.0,SSW,9.2,-,N/A,,Overcast,200,2013-10-04 19:35:00
3:55 PM,80.6,62.6,54,30.10,10.0,WSW,5.8,-,N/A,,Overcast,240,2013-10-04 19:55:00
4:15 PM,82.4,60.8,48,30.09,10.0,SW,8.1,-,N/A,,Mostly Cloudy,220,2013-10-04 20:15:00
4:35 PM,82.4,62.6,51,30.09,10.0,South,8.1,-,N/A,,Scattered Clouds,190,2013-10-04 20:35:00
4:55 PM,82.4,62.6,51,30.09,10.0,SW,10.4,-,N/A,,Clear,230,2013-10-04 20:55:00
5:15 PM,82.4,62.6,51,30.09,10.0,South,9.2,-,N/A,,Mostly Cloudy,190,2013-10-04 21:15:00
5:35 PM,82.4,62.6,51,30.09,10.0,SSW,8.1,-,N/A,,Scattered Clouds,200,2013-10-04 21:35:00
5:55 PM,80.6,62.6,54,30.08,10.0,South,8.1,-,N/A,,Clear,180,2013-10-04 21:55:00
6:15 PM,80.6,62.6,54,30.08,10.0,South,8.1,-,N/A,,Clear,190,2013-10-04 22:15:00
6:35 PM,80.6,62.6,54,30.08,10.0,South,4.6,-,N/A,,Clear,180,2013-10-04 22:35:00
6:55 PM,78.8,62.6,57,30.08,10.0,South,4.6,-,N/A,,Clear,180,2013-10-04 22:55:00
7:15 PM,77.0,62.6,61,30.09,10.0,South,5.8,-,N/A,,Clear,180,2013-10-04 23:15:00
7:35 PM,75.2,62.6,65,30.09,10.0,South,3.5,-,N/A,,Clear,170,2013-10-04 23:35:00
7:55 PM,75.2,62.6,65,30.10,10.0,South,3.5,-,N/A,,Clear,170,2013-10-04 23:55:00
8:15 PM,75.2,62.6,65,30.10,10.0,South,3.5,-,N/A,,Clear,170,2013-10-05 00:15:00
8:35 PM,71.6,62.6,73,30.10,10.0,Calm,Calm,-,N/A,,Clear,0,2013-10-05 00:35:00
8:55 PM,73.4,62.6,69,30.11,10.0,South,3.5,-,N/A,,Clear,180,2013-10-05 00:55:00
9:15 PM,73.4,62.6,69,30.10,10.0,South,4.6,-,N/A,,Clear,190,2013-10-05 01:15:00
9:35 PM,73.4,62.6,69,30.11,10.0,South,3.5,-,N/A,,Clear,190,2013-10-05 01:35:00
9:55 PM,71.6,62.6,73,30.11,10.0,South,4.6,-,N/A,,Scattered Clouds,180,2013-10-05 01:55:00
10:15 PM,71.6,62.6,73,30.11,10.0,Calm,Calm,-,N/A,,Clear,0,2013-10-05 02:15:00
10:35 PM,71.6,62.6,73,30.11,10.0,South,4.6,-,N/A,,Clear,190,2013-10-05 02:35:00
10:55 PM,71.6,62.6,73,30.10,10.0,South,5.8,-,N/A,,Clear,190,2013-10-05 02:55:00
11:15 PM,69.8,62.6,78,30.11,10.0,South,4.6,-,N/A,,Clear,190,2013-10-05 03:15:00
11:35 PM,69.8,62.6,78,30.11,10.0,South,5.8,-,N/A,,Clear,190,2013-10-05 03:35:00
11:55 PM,69.8,62.6,78,30.11,10.0,South,3.5,-,N/A,,Clear,190,2013-10-05 03:55:00